| time (UTC) | temp F | wind direction | speed knots | gust knots | rain 1hr in | rain 24hr in | rain mn in | humidity % | barometer mb |
| 20260502112142 | 43 | 247 | 3.5 | 5.2 | 0.00 | 0.00 | 0.00 | 85 | 1024.9 |
| 20260502111633 | 43 | 247 | 3.5 | 5.2 | 0.00 | 0.00 | 0.00 | 85 | 1024.7 |
| 20260502111121 | 43 | 247 | 2.6 | 5.2 | 0.00 | 0.00 | 0.00 | 83 | 1024.6 |
| 20260502110612 | 44 | 247 | 3.5 | 5.2 | 0.00 | 0.00 | 0.00 | 83 | 1024.6 |
| 20260502105550 | 43 | 247 | 1.7 | 3.5 | 0.00 | 0.00 | 0.00 | 84 | 1024.4 |
| 20260502105041 | 43 | 247 | 1.7 | 5.2 | 0.00 | 0.00 | 0.00 | 84 | 1024.4 |
| 20260502104531 | 43 | 247 | 3.5 | 6.1 | 0.00 | 0.00 | 0.00 | 84 | 1024.1 |
| 20260502104028 | 43 | 270 | 3.5 | 6.1 | 0.00 | 0.00 | 0.00 | 82 | 1024.2 |
| 20260502103511 | 43 | 247 | 3.5 | 5.2 | 0.00 | 0.00 | 0.00 | 83 | 1024.2 |
| 20260502103003 | 43 | 247 | 3.5 | 5.2 | 0.00 | 0.00 | 0.00 | 84 | 1024.0 |
| 20260502102451 | 43 | 270 | 3.5 | 5.2 | 0.00 | 0.00 | 0.00 | 83 | 1024.0 |
| 20260502101942 | 44 | 247 | 3.5 | 3.5 | 0.00 | 0.00 | 0.00 | 83 | 1023.8 |
| 20260502101430 | 43 | 247 | 2.6 | 3.5 | 0.00 | 0.00 | 0.00 | 83 | 1023.8 |
| 20260502100920 | 43 | 247 | 2.6 | 5.2 | 0.00 | 0.00 | 0.00 | 83 | 1023.7 |
| 20260502100410 | 43 | 247 | 3.5 | 5.2 | 0.00 | 0.00 | 0.00 | 83 | 1023.6 |
| 20260502091503 | 44 | 247 | 1.7 | 5.2 | 0.00 | 0.00 | 0.00 | 81 | 1022.7 |
| 20260502090956 | 44 | 247 | 2.6 | 5.2 | 0.00 | 0.00 | 0.00 | 79 | 1022.4 |
| 20260502071448 | 47 | 225 | 3.5 | 6.1 | 0.00 | 0.00 | 0.00 | 80 | 1020.0 |
| 20260502070937 | 47 | 225 | 3.5 | 5.2 | 0.00 | 0.00 | 0.00 | 80 | 1019.9 |
| 20260502070426 | 47 | 247 | 2.6 | 3.5 | 0.00 | 0.00 | 0.00 | 80 | 1019.8 |
| 20260502065848 | 47 | 225 | 2.6 | 3.5 | 0.00 | 0.00 | 0.00 | 81 | 1019.8 |
| 20260502065337 | 47 | 225 | 2.6 | 3.5 | 0.00 | 0.00 | 0.00 | 81 | 1019.6 |
| 20260502064828 | 48 | 247 | 2.6 | 3.5 | 0.00 | 0.00 | 0.00 | 81 | 1019.7 |